FW7236 Weather Reports


time (UTC)temp
C
wind
direction
speed
KPH
gust
KPH
rain 1hr
cm
rain 24hr
cm
rain mn
cm
humidity
%
barometer
mb
20260507143056 13 0 0.0 0.0 0.00 0.00 0.00 90 1022.8
20260507141604 12 0 0.0 0.0 0.00 0.00 0.00 93 1022.6
20260507140042 11 0 0.0 0.0 0.00 0.00 0.00 93 1022.5
20260507134540 11 0 0.0 0.0 0.00 0.00 0.00 93 1022.2
20260507133041 10 0 0.0 0.0 0.00 0.00 0.00 93 1022.0
20260507131546 10 0 0.0 0.0 0.00 0.00 0.00 93 1021.9
20260507130042 10 0 0.0 0.0 0.00 0.00 0.00 93 1021.9
20260507124542 10 0 0.0 0.0 0.00 0.00 0.00 92 1021.9
20260507123043 10 0 0.0 0.0 0.00 0.00 0.00 92 1021.8
20260507121543 10 0 0.0 0.0 0.00 0.00 0.00 92 1021.7
20260507120036 11 0 0.0 0.0 0.00 0.00 0.00 92 1021.9
20260507114541 11 0 0.0 0.0 0.00 0.00 0.00 92 1021.9
20260507113040 11 0 0.0 0.0 0.00 0.00 0.00 92 1022.0
20260507111540 11 0 0.0 0.0 0.00 0.00 0.00 92 1022.2
20260507110037 11 0 0.0 0.0 0.00 0.00 0.00 91 1022.3
20260507104546 11 0 0.0 1.6 0.00 0.00 0.00 91 1022.3
20260507103043 11 0 0.0 1.6 0.00 0.00 0.00 91 1022.3
20260507101542 11 0 0.0 0.0 0.00 0.00 0.00 90 1022.3
20260507100052 11 0 0.0 0.0 0.00 0.00 0.00 90 1022.3
20260507094540 12 0 0.0 0.0 0.00 0.00 0.00 90 1022.4
20260507093037 12 0 0.0 3.2 0.00 0.00 0.00 90 1022.5
20260507091543 12 0 0.0 0.0 0.00 0.00 0.00 90 1022.7
20260507090049 12 0 0.0 3.2 0.00 0.00 0.00 90 1023.0
20260507084549 12 0 0.0 0.0 0.00 0.00 0.00 90 1023.1
20260507083039 12 0 0.0 0.0 0.00 0.00 0.00 90 1023.2
20260507081545 12 0 0.0 0.0 0.00 0.00 0.00 89 1023.5
20260507080041 12 0 0.0 0.0 0.00 0.00 0.00 88 1023.5
20260507074541 12 0 0.0 0.0 0.00 0.00 0.00 88 1023.3
20260507073040 12 0 0.0 0.0 0.00 0.00 0.00 87 1023.2
20260507071539 13 0 0.0 0.0 0.00 0.00 0.00 88 1023.4
20260507070043 13 0 0.0 0.0 0.00 0.00 0.00 87 1023.5
20260507064613 13 0 0.0 0.0 0.00 0.00 0.00 86 1023.5
20260507063037 13 0 0.0 0.0 0.00 0.00 0.00 86 1023.5
20260507061540 13 0 0.0 0.0 0.00 0.00 0.00 85 1023.5
20260507060108 13 0 0.0 0.0 0.00 0.00 0.00 85 1023.5
20260507054551 13 0 0.0 0.0 0.00 0.00 0.00 84 1023.4
20260507053044 14 0 0.0 0.0 0.00 0.00 0.00 83 1023.2
20260507051553 14 0 0.0 0.0 0.00 0.00 0.00 82 1023.2
20260507050046 14 0 0.0 0.0 0.00 0.00 0.00 82 1023.3
20260507044539 15 0 0.0 0.0 0.00 0.00 0.00 81 1023.4
20260507043041 15 0 0.0 0.0 0.00 0.00 0.00 80 1023.4
20260507041537 15 0 0.0 0.0 0.00 0.00 0.00 79 1023.4
20260507040042 15 0 0.0 3.2 0.00 0.00 0.00 78 1023.2
20260507034538 16 0 0.0 3.2 0.00 0.00 0.00 78 1023.0
20260507033038 16 0 0.0 0.0 0.00 0.00 0.00 77 1023.0
20260507031538 16 0 0.0 3.2 0.00 0.00 0.00 76 1022.9
20260507030040 16 0 0.0 3.2 0.00 0.00 0.00 76 1022.9
20260507024544 17 0 0.0 3.2 0.00 0.00 0.00 75 1022.6
20260507023043 17 0 0.0 6.4 0.00 0.00 0.00 74 1022.6
20260507021543 18 148 0.0 6.4 0.00 0.00 0.00 72 1022.5
20260507020044 18 98 1.6 6.4 0.00 0.00 0.00 70 1022.3
20260507014547 19 94 1.6 8.0 0.00 0.00 0.00 66 1022.2
20260507013041 20 121 1.6 8.0 0.00 0.00 0.00 64 1022.4
20260507011541 20 92 3.2 9.7 0.00 0.00 0.00 65 1022.3
20260507010058 20 78 3.2 11.3 0.00 0.00 0.00 64 1022.3
20260507004537 21 99 3.2 11.3 0.00 0.00 0.00 63 1022.1
20260507003039 21 87 3.2 8.0 0.00 0.00 0.00 62 1022.2
20260507001537 21 102 3.2 16.1 0.00 0.00 0.00 61 1022.1
20260507000039 22 119 1.6 11.3 0.00 0.00 0.00 56 1021.8
20260506234538 22 103 4.8 16.1 0.00 0.00 0.00 56 1022.0
20260506233040 22 115 1.6 16.1 0.00 0.00 0.00 55 1021.9
20260506231551 22 149 3.2 11.3 0.00 0.00 0.00 52 1021.9
20260506230052 22 148 3.2 11.3 0.00 0.00 0.00 52 1022.0
20260506224543 22 101 1.6 12.9 0.00 0.00 0.00 54 1022.2
20260506223038 22 100 4.8 11.3 0.00 0.00 0.00 54 1022.5
20260506221541 22 116 4.8 14.5 0.00 0.00 0.00 54 1022.5
20260506220050 22 71 4.8 14.5 0.00 0.00 0.00 57 1022.7
20260506214540 22 153 3.2 11.3 0.00 0.00 0.00 60 1022.8
20260506213039 22 65 4.8 12.9 0.00 0.00 0.00 61 1023.0
20260506211544 22 135 3.2 14.5 0.00 0.00 0.00 62 1023.2
20260506210052 22 97 3.2 11.3 0.00 0.00 0.00 62 1023.2
20260506204541 22 126 3.2 11.3 0.00 0.00 0.00 62 1023.3
20260506203039 22 178 3.2 11.3 0.00 0.00 0.00 63 1023.5
20260506201542 21 17 3.2 12.9 0.00 0.00 0.00 67 1023.7
20260506200039 21 360 4.8 14.5 0.00 0.00 0.00 65 1023.8
20260506194540 21 38 3.2 16.1 0.00 0.00 0.00 66 1024.0
20260506193038 21 114 4.8 16.1 0.00 0.00 0.00 68 1024.2
20260506191538 20 30 8.0 17.7 0.00 0.00 0.00 68 1024.4
20260506190036 20 59 4.8 14.5 0.00 0.00 0.00 70 1024.6
20260506184556 20 96 3.2 14.5 0.00 0.00 0.00 69 1024.6
20260506183041 20 22 6.4 14.5 0.00 0.00 0.00 70 1024.6
20260506181540 20 47 4.8 17.7 0.00 0.00 0.00 70 1024.8
20260506180047 19 94 3.2 14.5 0.00 0.00 0.00 70 1024.7
20260506174537 19 38 1.6 11.3 0.00 0.00 0.00 69 1024.7
20260506173047 20 29 4.8 9.7 0.00 0.00 0.00 68 1024.8
20260506171554 19 43 3.2 9.7 0.00 0.00 0.00 67 1024.8
20260506170043 18 77 3.2 12.9 0.00 0.00 0.00 69 1024.8
20260506164546 18 0 3.2 9.7 0.00 0.00 0.00 71 1024.9
20260506163045 17 33 0.0 6.4 0.00 0.00 0.00 71 1025.0
20260506161546 17 0 1.6 6.4 0.00 0.00 0.00 73 1025.0
20260506160057 17 26 1.6 11.3 0.00 0.00 0.00 75 1025.1
20260506154542 17 0 1.6 6.4 0.00 0.00 0.00 76 1025.0
20260506153039 16 13 1.6 6.4 0.00 0.00 0.00 76 1024.8
20260506151545 16 0 1.6 4.8 0.00 0.00 0.00 75 1024.8
20260506150053 16 345 0.0 4.8 0.00 0.00 0.00 75 1024.8
20260506144557 15 217 0.0 3.2 0.00 0.00 0.00 76 1024.7